SQ5OUZ-8 Weather Reports


time (UTC)temp
C
wind
direction
speed
KPH
gust
KPH
rain 1hr
cm
rain 24hr
cm
rain mn
cm
humidity
%
barometer
mb
20260905222935 13 0.0 0.0 0.00 0.00 0.00 100 1018.0
20260905221302 13 0.0 0.0 0.00 0.00 0.00 100 1018.0
20260905215648 14 0.0 0.0 0.00 0.00 0.00 98 1018.0
20260905213845 14 0.0 0.0 0.00 0.00 0.00 96 1018.0
20260905212026 14 0.0 0.0 0.00 0.00 0.00 96 1017.0
20260905210214 14 0.0 0.0 0.00 0.00 0.00 95 1017.0
20260905204245 15 0.0 0.0 0.00 0.00 0.00 94 1017.0
20260905202333 15 0.0 0.0 0.00 0.00 0.00 93 1017.0
20260905200426 15 0.0 0.0 0.00 0.00 0.00 100 1017.0
20260905194435 15 0.0 0.0 0.00 0.00 0.00 100 1017.0
20260905192816 15 0.0 0.0 0.00 0.00 0.00 100 1017.0
20260905191137 15 0.0 0.0 0.00 0.00 0.00 100 1017.0
20260905185232 15 0.0 0.0 0.00 0.00 0.00 100 1017.0
20260905183356 15 0.0 0.0 0.00 0.00 0.00 100 1017.0
20260905181538 16 0.0 0.0 0.00 0.00 0.00 84 1017.0
20260905175753 17 0.0 0.0 0.00 0.00 0.00 72 1017.0
20260905174015 17 0.0 0.0 0.00 0.00 0.00 72 1017.0
20260905172053 17 0.0 0.0 0.00 0.00 0.00 71 1016.0
20260905170327 17 0.0 0.0 0.00 0.00 0.00 67 1016.0
20260905164652 17 0.0 0.0 0.00 0.00 0.00 64 1016.0
20260905162833 18 0.0 0.0 0.00 0.00 0.00 59 1016.0
20260905160849 20 0.0 0.0 0.00 0.00 0.00 51 1016.0
20260905155226 25 0.0 0.0 0.00 0.00 0.00 39 1015.0
20260905153411 22 0.0 0.0 0.00 0.00 0.00 43 1015.0
20260905151434 24 0.0 0.0 0.00 0.00 0.00 37 1015.0
20260905145734 22 0.0 0.0 0.00 0.00 0.00 40 1015.0
20260905144019 26 0.0 0.0 0.00 0.00 0.00 32 1015.0
20260905142112 26 0.0 0.0 0.00 0.00 0.00 34 1015.0
20260905140317 26 0.0 0.0 0.00 0.00 0.00 33 1015.0
20260905134434 22 0.0 0.0 0.00 0.00 0.00 38 1015.0
20260905132653 24 0.0 0.0 0.00 0.00 0.00 37 1015.0
20260905130813 27 0.0 0.0 0.00 0.00 0.00 32 1015.0
20260905125105 26 0.0 0.0 0.00 0.00 0.00 37 1015.0
20260905123438 25 0.0 0.0 0.00 0.00 0.00 39 1015.0
20260905121733 26 0.0 0.0 0.00 0.00 0.00 38 1015.0
20260905120044 23 0.0 0.0 0.00 0.00 0.00 47 1015.0
20260905114056 23 0.0 0.0 0.00 0.00 0.00 47 1015.0
20260905112212 24 0.0 0.0 0.00 0.00 0.00 45 1014.0
20260905110226 25 0.0 0.0 0.00 0.00 0.00 41 1014.0
20260905104234 24 0.0 0.0 0.00 0.00 0.00 47 1014.0
20260905102542 24 0.0 0.0 0.00 0.00 0.00 46 1014.0
20260905100941 25 0.0 0.0 0.00 0.00 0.00 46 1014.0
20260905095142 23 0.0 0.0 0.00 0.00 0.00 55 1014.0
20260905093406 20 0.0 0.0 0.00 0.00 0.00 62 1014.0
20260905091529 21 0.0 0.0 0.00 0.00 0.00 65 1014.0
20260905085843 20 0.0 0.0 0.00 0.00 0.00 70 1014.0
20260905084029 21 0.0 0.0 0.00 0.00 0.00 65 1014.0
20260905082158 21 0.0 0.0 0.00 0.00 0.00 66 1014.0
20260905080540 21 0.0 0.0 0.00 0.00 0.00 68 1014.0
20260905074912 20 0.0 0.0 0.00 0.00 0.00 70 1014.0
20260905073013 19 0.0 0.0 0.00 0.00 0.00 81 1014.0
20260905071406 18 0.0 0.0 0.00 0.00 0.00 87 1014.0
20260905065447 17 0.0 0.0 0.00 0.00 0.00 92 1014.0
20260905063708 17 0.0 0.0 0.00 0.00 0.00 97 1013.0
20260905061716 17 0.0 0.0 0.00 0.00 0.00 98 1013.0
20260905060116 17 0.0 0.0 0.00 0.00 0.00 100 1013.0
20260905054307 17 0.0 0.0 0.00 0.00 0.00 100 1013.0
20260905052522 16 0.0 0.0 0.00 0.00 0.00 100 1013.0
20260905050608 16 0.0 0.0 0.00 0.00 0.00 100 1012.0
20260905044813 16 0.0 0.0 0.00 0.00 0.00 100 1012.0
20260905042836 16 0.0 0.0 0.00 0.00 0.00 100 1012.0
20260905040907 16 0.0 0.0 0.00 0.00 0.00 100 1012.0
20260905034916 16 0.0 0.0 0.00 0.00 0.00 100 1011.0
20260905033222 16 0.0 0.0 0.00 0.00 0.00 100 1011.0
20260905031258 16 0.0 0.0 0.00 0.00 0.00 100 1011.0
20260905025505 16 0.0 0.0 0.00 0.00 0.00 100 1011.0
20260905023532 16 0.0 0.0 0.00 0.00 0.00 100 1011.0
20260905021713 16 0.0 0.0 0.00 0.00 0.00 100 1011.0
20260905020104 16 0.0 0.0 0.00 0.00 0.00 100 1010.0
20260905014326 16 0.0 0.0 0.00 0.00 0.00 100 1010.0
20260905012429 16 0.0 0.0 0.00 0.00 0.00 100 1010.0
20260905010740 16 0.0 0.0 0.00 0.00 0.00 100 1010.0
20260905004931 17 0.0 0.0 0.00 0.00 0.00 100 1010.0
20260905003011 17 0.0 0.0 0.00 0.00 0.00 100 1009.0
20260905001016 18 0.0 0.0 0.00 0.00 0.00 100 1009.0
20260904235049 18 0.0 0.0 0.00 0.00 0.00 100 1008.0
20260904233423 18 0.0 0.0 0.00 0.00 0.00 100 1008.0
20260904231816 18 0.0 0.0 0.00 0.00 0.00 100 1008.0
20260904225818 18 0.0 0.0 0.00 0.00 0.00 100 1008.0
20260904223827 18 0.0 0.0 0.00 0.00 0.00 100 1008.0